Weather History for Shawnee, OK

Change the Weather History Date:

Thursday, February 13, 2014

  Actual Average (KTIK) Record (KTIK)
Temperature  
Mean Temperature 46 °F -  
Max Temperature 66 °F 51 °F 69 °F (2005)
Min Temperature 26 °F 32 °F 15 °F (2004)
Degree Days  
Heating Degree Days 19    
Moisture  
Dew Point 34 °F    
Average Humidity 72    
Maximum Humidity 100    
Minimum Humidity 37    
Precipitation  
Precipitation 0.00 in - - ()
Sea Level Pressure  
Sea Level Pressure 29.93 in    
Wind  
Wind Speed 3 mph (SSW)    
Max Wind Speed 14 mph    
Max Gust Speed 17 mph    
Visibility 8 miles    
Events      
Averages and records for this station are not official NWS values.
T = Trace of Precipitation, MM = Missing Value Source: NWS Daily Summary

Daily Weather History Graph

Daily Weather History Graph

Search for Another Location

Airport:

Trip Planner

Search our weather history database for the weather conditions in past years. The results will help you decide how hot, cold, wet, or windy it might be!

Date:

Astronomy

Feb. 13, 2014 Rise Set
Actual Time 7:16 AM CST 6:08 PM CST
Civil Twilight 6:50 AM CST 6:34 PM CST
Nautical Twilight 6:20 AM CST 7:04 PM CST
Astronomical Twilight 5:50 AM CST 7:33 PM CST
Moon 5:17 PM CST (2/13) 6:09 AM CST (2/13)
Length of Visible Light 11h 44m
Length of Day
10h 51m
Waxing Gibbous, 99% of the Moon is Illuminated
Feb 13
Waxing Gibbous
Feb 14
Full
Feb 22
Last Quarter
Mar 1
New
Mar 8
First Quarter

Hourly Weather History & Observations

Time (CST) Temp. Windchill Dew Point Humidity Pressure Visibility Wind Dir Wind Speed Gust Speed Precip Events Conditions
12:15 AM 30.2 °F - 28.4 °F 93% 30.04 in 7.0 mi Calm Calm - N/A   Scattered Clouds
12:35 AM 26.6 °F - 26.6 °F 100% 30.04 in 7.0 mi Calm Calm - N/A   Scattered Clouds
12:55 AM 28.4 °F - 26.6 °F 93% 30.04 in 5.0 mi Calm Calm - N/A   Scattered Clouds
1:15 AM 28.4 °F - 28.4 °F 100% 30.03 in 5.0 mi Calm Calm - N/A   Scattered Clouds
1:35 AM 28.4 °F - 28.4 °F 100% 30.03 in 5.0 mi Calm Calm - N/A   Clear
1:55 AM 28.4 °F - 28.4 °F 100% 30.04 in 5.0 mi Calm Calm - N/A   Clear
2:15 AM 28.4 °F - 28.4 °F 100% 30.02 in 5.0 mi Calm Calm - N/A   Scattered Clouds
2:35 AM 30.2 °F 26.7 °F 28.4 °F 93% 30.01 in 7.0 mi SE 3.5 mph - N/A   Scattered Clouds
2:55 AM 28.4 °F 23.3 °F 26.6 °F 93% 29.99 in 5.0 mi ESE 4.6 mph - N/A   Scattered Clouds
3:15 AM 30.2 °F - 28.4 °F 93% 29.99 in 5.0 mi Calm Calm - N/A   Scattered Clouds
3:35 AM 26.6 °F 22.6 °F 26.6 °F 100% 29.97 in 5.0 mi South 3.5 mph - N/A   Scattered Clouds
3:55 AM 28.4 °F - 28.4 °F 100% 29.97 in 5.0 mi Calm Calm - N/A   Scattered Clouds
4:15 AM 28.4 °F 24.6 °F 28.4 °F 100% 29.96 in 5.0 mi SSW 3.5 mph - N/A   Scattered Clouds
4:35 AM 28.4 °F 24.6 °F 28.4 °F 100% 29.96 in 5.0 mi SSE 3.5 mph - N/A   Scattered Clouds
4:55 AM 30.2 °F 26.7 °F 28.4 °F 93% 29.97 in 5.0 mi SSW 3.5 mph - N/A   Scattered Clouds
5:15 AM 28.4 °F - 28.4 °F 100% 29.98 in 4.0 mi Calm Calm - N/A   Scattered Clouds
5:35 AM 26.6 °F - 26.6 °F 100% 29.98 in 4.0 mi Calm Calm - N/A   Scattered Clouds
5:55 AM 28.4 °F - 28.4 °F 100% 29.99 in 4.0 mi Calm Calm - N/A   Scattered Clouds
6:15 AM 28.4 °F 23.3 °F 28.4 °F 100% 29.97 in 4.0 mi South 4.6 mph - N/A   Scattered Clouds
6:35 AM 28.4 °F 24.6 °F 28.4 °F 100% 29.96 in 5.0 mi South 3.5 mph - N/A   Scattered Clouds
6:55 AM 30.2 °F 25.4 °F 28.4 °F 93% 29.95 in 5.0 mi South 4.6 mph - N/A   Scattered Clouds
7:15 AM 30.2 °F 26.7 °F 28.4 °F 93% 29.96 in 5.0 mi SSW 3.5 mph - N/A   Scattered Clouds
7:35 AM 30.2 °F 26.7 °F 30.2 °F 100% 29.97 in 4.0 mi SW 3.5 mph - N/A   Scattered Clouds
7:55 AM 30.2 °F 26.7 °F 30.2 °F 100% 29.98 in 4.0 mi SW 3.5 mph - N/A   Clear
8:15 AM 32.0 °F - 32.0 °F 100% 29.99 in 4.0 mi Calm Calm - N/A   Clear
8:35 AM 32.0 °F 27.5 °F 32.0 °F 100% 30.00 in 5.0 mi SW 4.6 mph - N/A   Clear
8:55 AM 33.8 °F 28.6 °F 33.8 °F 100% 30.00 in 7.0 mi SSW 5.8 mph - N/A   Clear
9:15 AM 35.6 °F 29.9 °F 35.6 °F 100% 30.00 in 7.0 mi SSW 6.9 mph - N/A   Clear
9:35 AM 39.2 °F 34.2 °F 37.4 °F 93% 30.00 in 7.0 mi SSW 6.9 mph - N/A   Clear
9:55 AM 41.0 °F 37.1 °F 37.4 °F 87% 29.99 in 10.0 mi SSW 5.8 mph - N/A   Clear
10:15 AM 42.8 °F 38.6 °F 35.6 °F 76% 29.99 in 10.0 mi SSW 6.9 mph - N/A   Clear
10:35 AM 46.4 °F 41.5 °F 37.4 °F 71% 29.98 in 10.0 mi SSW 10.4 mph - N/A   Clear
10:55 AM 48.2 °F - 37.4 °F 66% 29.97 in 10.0 mi SSW 10.4 mph - N/A   Clear
11:15 AM 51.8 °F - 35.6 °F 54% 29.97 in 10.0 mi SW 10.4 mph - N/A   Clear
11:35 AM 53.6 °F - 37.4 °F 54% 29.97 in 10.0 mi SSW 10.4 mph - N/A   Clear
11:55 AM 55.4 °F - 37.4 °F 51% 29.95 in 10.0 mi SW 11.5 mph - N/A   Clear
12:15 PM 55.4 °F - 37.4 °F 51% 29.94 in 10.0 mi SSW 9.2 mph - N/A   Clear
12:35 PM 57.2 °F - 37.4 °F 48% 29.92 in 10.0 mi SW 13.8 mph 17.3 mph N/A   Clear
12:55 PM 59.0 °F - 37.4 °F 45% 29.92 in 10.0 mi SW 11.5 mph - N/A   Clear
1:35 PM 60.8 °F - 39.2 °F 45% 29.91 in 10.0 mi WSW 8.1 mph - N/A   Clear
1:55 PM 60.8 °F - 37.4 °F 42% 29.90 in 10.0 mi West 8.1 mph - N/A   Clear
2:15 PM 60.8 °F - 37.4 °F 42% 29.89 in 10.0 mi WSW 8.1 mph - N/A   Clear
2:35 PM 62.6 °F - 37.4 °F 39% 29.87 in 10.0 mi WSW 6.9 mph - N/A   Clear
2:55 PM 62.6 °F - 39.2 °F 42% 29.87 in 10.0 mi SW 5.8 mph - N/A   Clear
3:15 PM 62.6 °F - 39.2 °F 42% 29.87 in 10.0 mi West 6.9 mph - N/A   Clear
3:35 PM 64.4 °F - 39.2 °F 40% 29.86 in 10.0 mi SW 6.9 mph - N/A   Clear
3:55 PM 64.4 °F - 39.2 °F 40% 29.86 in 10.0 mi SW 8.1 mph - N/A   Clear
4:15 PM 64.4 °F - 39.2 °F 40% 29.85 in 10.0 mi WSW 4.6 mph - N/A   Clear
4:35 PM 66.2 °F - 39.2 °F 37% 29.85 in 10.0 mi West 5.8 mph - N/A   Clear
4:55 PM 66.2 °F - 39.2 °F 37% 29.85 in 10.0 mi Calm Calm - N/A   Clear
5:15 PM 64.4 °F - 37.4 °F 37% 29.86 in 10.0 mi WNW 3.5 mph - N/A   Clear
5:55 PM 60.8 °F - 37.4 °F 42% 29.86 in 10.0 mi Calm Calm - N/A   Clear
6:15 PM 59.0 °F - 37.4 °F 45% 29.86 in 10.0 mi Calm Calm - N/A   Clear
6:35 PM 55.4 °F - 32.0 °F 41% 29.86 in 10.0 mi Calm Calm - N/A   Clear
6:55 PM 55.4 °F - 35.6 °F 47% 29.85 in 10.0 mi Calm Calm - N/A   Clear
7:15 PM 53.6 °F - 35.6 °F 51% 29.85 in 10.0 mi Calm Calm - N/A   Clear
7:35 PM 53.6 °F - 37.4 °F 54% 29.85 in 10.0 mi South 3.5 mph - N/A   Clear
7:55 PM 51.8 °F - 35.6 °F 54% 29.85 in 10.0 mi South 3.5 mph - N/A   Clear
8:15 PM 46.4 °F - 32.0 °F 57% 29.86 in 10.0 mi Calm Calm - N/A   Clear
8:35 PM 51.8 °F - 37.4 °F 58% 29.87 in 10.0 mi Calm Calm - N/A   Clear
8:55 PM 51.8 °F - 35.6 °F 54% 29.88 in 10.0 mi Calm Calm - N/A   Clear
9:15 PM 46.4 °F 45.2 °F 32.0 °F 57% 29.87 in 10.0 mi SSW 3.5 mph - N/A   Clear
9:35 PM 48.2 °F - 35.6 °F 62% 29.86 in 10.0 mi SSW 5.8 mph - N/A   Clear
9:55 PM 46.4 °F - 33.8 °F 62% 29.85 in 10.0 mi Calm Calm - N/A   Clear
10:15 PM 46.4 °F 44.3 °F 35.6 °F 66% 29.84 in 10.0 mi South 4.6 mph - N/A   Clear
10:35 PM 48.2 °F - 37.4 °F 66% 29.83 in 10.0 mi SSE 4.6 mph - N/A   Clear
10:55 PM 48.2 °F - 35.6 °F 62% 29.83 in 10.0 mi Calm Calm - N/A   Clear
11:15 PM 46.4 °F 45.2 °F 35.6 °F 66% 29.82 in 10.0 mi South 3.5 mph - N/A   Clear
11:35 PM 44.6 °F 43.1 °F 35.6 °F 71% 29.82 in 10.0 mi South 3.5 mph - N/A   Clear
11:55 PM 44.6 °F 42.2 °F 35.6 °F 71% 29.81 in 10.0 mi South 4.6 mph - N/A   Clear